Location: Malanoce
(44.2500°N, 7.4667°E)
Time: 05:04:40
(UTC+00:00)

Cosmos 2082 Rocket - Pass Details

Date: 17 November 2025
Orbit: 834 x 851 km, 71.0° (Epoch: 09 December)

Event Time Altitude Azimuth Distance (km) Brightness Sun altitude
Rises 17:47:11 0° 334° (NNW) 3,390 5.6 -18.9°
Reaches altitude 10° 17:49:38 10° 335° (NNW) 2,452 4.8 -19.3°
Maximum altitude 17:55:16 89° 60° (ENE) 840 2.1 -20.3°
Drops below altitude 10° 18:00:53 10° 156° (SSE) 2,440 4.4 -21.3°
Sets 18:03:18 0° 157° (SSE) 3,372 5.2 -21.7°
